Regional Weather Roundup
Issued by NWS

Home | Current Version | Previous Version | Graphics & Text | Print | Product List | Glossary On
Versions: 1 2 3 4 5 6 7 8 9 10 11 12 13 14 15 16 17 18 19 20 21 22 23 24 25 26 27 28 29 30 31 32 33 34 35 36 37 38 39 40 41 42 43 44 45 46 47 48 49 50
000
ASUS43 KIND 280309
RWRIN

WEATHER ROUNDUP FOR INDIANA
NATIONAL WEATHER SERVICE INDIANAPOLIS IN
1000 PM EST MON FEB 27 2017

NOTE: "FAIR" INDICATES FEW OR NO CLOUDS BELOW 12,000 FEET WITH NO
SIGNIFICANT WEATHER AND/OR OBSTRUCTIONS TO VISIBILITY.

* - STATION DOES NOT REPORT WEATHER SUCH AS PRECIPITATION OR FOG.

+ - STATION NOT QUALITY CONTROLLED BY THE NATIONAL WEATHER SERVICE.
    USE DATA WITH CAUTION...ESPECIALLY DEWPOINT AND RELATIVE
    HUMIDITY OBSERVATIONS.

INZ001>003-010>013-019-020-280400-
NORTHWEST INDIANA

CITY           SKY/WX    TMP DP  RH WIND       PRES   REMARKS
KNOX *+        PTCLDY    43  23  45 S12       30.12F
LA PORTE +     CLOUDY    44  38  79 S8        30.12F
MICHIGAN CITY+ PTCLDY    45  36  70 S7        30.11F
MONTICELLO +   CLOUDY    45  39  81 SE6       30.12S
RENSSELAER +   CLOUDY    45  41  87 SE8       30.10F
VALPARAISO     CLOUDY    47  39  74 SE10      30.11S

$$

LMZ046-743>745-280400-
SOUTHERN LAKE MICHIGAN

STATION/POSITION TIME  TEMP    WIND        PRES    WAVE
                       AIR SEA DIR/SP/G            HT
                 (UTC) (F)     (DEG/KT/KT) (MB)    (FT)
BURNS HARBOR     0202   49     150/ 11/ 20 1019.6
MICHIGAN CITY    0240   47     140/ 12/ 15   N/A

$$

INZ004-005-014>016-021>024-280400-
NORTH CENTRAL INDIANA

CITY           SKY/WX    TMP DP  RH WIND       PRES   REMARKS
GOSHEN         CLOUDY    43  36  76 SE10      30.14R
LOGANSPORT +   CLOUDY    41  37  87 SE7       30.15S
PERU/GRISSOM   CLOUDY    42  41  99 S8        30.13S
ROCHESTER +    CLOUDY    45  41  87 S7        30.15S
SOUTH BEND     CLOUDY    44  36  73 S10       30.13S
WARSAW +       CLOUDY    43  37  81 SE6       30.14F

$$

INZ006>009-017-018-025>027-280400-
NORTHEAST INDIANA

CITY           SKY/WX    TMP DP  RH WIND       PRES   REMARKS
ANGOLA *+      CLEAR     39  37  93 SE5       30.16S
AUBURN +       CLOUDY    41  36  81 S3        30.19R
FORT WAYNE     CLOUDY    39  36  89 SE6       30.18R
HUNTINGTON +   CLOUDY    40  38  92 SE3       30.17S
KENDALLVILLE + CLOUDY    41  38  87 S8        30.16R

$$

INZ028-029-035-036-043>045-051>053-280400-
WEST CENTRAL INDIANA

CITY           SKY/WX    TMP DP  RH WIND       PRES   REMARKS
GREENCASTLE +  FAIR      45  41  87 SE9       30.13F
LAFAYETTE      CLOUDY    46  40  79 SE9       30.12S
TERRE HAUTE    PTCLDY    48  41  76 SE10      30.11F

$$

INZ030>032-037>040-046>048-054>057-064-065-280400-
CENTRAL INDIANA

CITY           SKY/WX    TMP DP  RH WIND       PRES   REMARKS
CP ATTERBURY + PTCLDY    39  37  93 SE3       30.17S
COLUMBUS       CLEAR     41  41 100 SE5       30.17S
FISHERS *+     CLOUDY    43  43 100 SE3       30.16
FRANKFORT +    PTCLDY    44  41  91 SE8       30.15S
GREENWOOD *+   PTCLDY    45  42  91 SE7       30.16S
INDIANAPOLIS   CLOUDY    43  40  89 SE7       30.15R
-EAGLE CREEK   CLOUDY    45  40  82 SE5       30.15R
KOKOMO +       CLOUDY    41  40  96 SE9       30.16S
MARION +       CLOUDY    41  38  89 SE6       30.17S
MT COMFORT *+  CLOUDY    41  39  93 SE6       30.17R
SHELBYVILLE    MOCLDY    46  40  79 SE9       30.16S
ZIONSVILLE +   CLOUDY    42  40  93 SE7       30.16S

$$

INZ033-034-041-042-049-050-058-059-280400-
EAST CENTRAL INDIANA

CITY           SKY/WX    TMP DP  RH WIND       PRES   REMARKS
MUNCIE         CLOUDY    45  41  86 S7        30.17R

$$

INZ060-061-067>069-081>083-085>088-280400-
SOUTHWEST INDIANA

CITY           SKY/WX    TMP DP  RH WIND       PRES   REMARKS
EVANSVILLE     CLOUDY    52  43  71 SE3       30.12F
HUNTINGBURG *+ MOCLDY    52  43  71 SE12      30.12F
WASHINGTON +   CLOUDY    47  41  80 SE5       30.11F

$$

INZ062-063-066-070>080-084-089>092-280400-
SOUTH CENTRAL AND SOUTHEAST INDIANA

CITY           SKY/WX    TMP DP  RH WIND       PRES   REMARKS
BEDFORD +      CLEAR     46  39  76 SE7       30.13S
BLOOMINGTON    CLEAR     45  41  86 SE6       30.13F
MADISON *+     CLEAR     45  41  87 E6        30.20S
NORTH VERNON + CLEAR     45  45 100 SE6       30.17S
SEYMOUR +      CLEAR     45  39  81 CALM      30.16S

$$




USA.gov is the U.S. government's official web portal to all federal, state and local government web resources and services.